﻿測定場所 (Monitoring sites),日付 (Measurement date),時間 (Measurement time),線量率 最大値 (max) μGy/h,線量率 最小値 (min) μGy/h,線量率 平均値 (average) μGy/h,
江東 (Koto),2013-09-01,23:01～24:00,0.0437,0.0389,0.0411,
江東 (Koto),2013-09-01,22:01～23:00,0.0444,0.0387,0.0411,
江東 (Koto),2013-09-01,21:01～22:00,0.0428,0.0386,0.0409,
江東 (Koto),2013-09-01,20:01～21:00,0.0434,0.0383,0.0409,
江東 (Koto),2013-09-01,19:01～20:00,0.0434,0.0386,0.0410,
江東 (Koto),2013-09-01,18:01～19:00,0.0432,0.0389,0.0412,
江東 (Koto),2013-09-01,17:01～18:00,0.0433,0.0380,0.0411,
江東 (Koto),2013-09-01,16:01～17:00,0.0440,0.0369,0.0411,
江東 (Koto),2013-09-01,15:01～16:00,0.0438,0.0385,0.0411,
江東 (Koto),2013-09-01,14:01～15:00,0.0441,0.0394,0.0410,
江東 (Koto),2013-09-01,13:01～14:00,0.0454,0.0386,0.0410,
江東 (Koto),2013-09-01,12:01～13:00,0.0433,0.0379,0.0409,
江東 (Koto),2013-09-01,11:01～12:00,0.0433,0.0385,0.0409,
江東 (Koto),2013-09-01,10:01～11:00,0.0432,0.0382,0.0409,
江東 (Koto),2013-09-01,09:01～10:00,0.0441,0.0381,0.0411,
江東 (Koto),2013-09-01,08:01～09:00,0.0436,0.0384,0.0410,
江東 (Koto),2013-09-01,07:01～08:00,0.0444,0.0390,0.0412,
江東 (Koto),2013-09-01,06:01～07:00,0.0433,0.0381,0.0407,
江東 (Koto),2013-09-01,05:01～06:00,0.0439,0.0386,0.0409,
江東 (Koto),2013-09-01,04:01～05:00,0.0446,0.0391,0.0412,
江東 (Koto),2013-09-01,03:01～04:00,0.0432,0.0386,0.0409,
江東 (Koto),2013-09-01,02:01～03:00,0.0433,0.0379,0.0408,
江東 (Koto),2013-09-01,01:01～02:00,0.0433,0.0387,0.0409,
江東 (Koto),2013-09-01,00:01～01:00,0.0430,0.0387,0.0406,
江東 (Koto),2013-08-31,23:01～24:00,0.0440,0.0379,0.0410,
江東 (Koto),2013-08-31,22:01～23:00,0.0435,0.0379,0.0410,
江東 (Koto),2013-08-31,21:01～22:00,0.0438,0.0383,0.0407,
江東 (Koto),2013-08-31,20:01～21:00,0.0438,0.0389,0.0409,
江東 (Koto),2013-08-31,19:01～20:00,0.0428,0.0378,0.0406,
江東 (Koto),2013-08-31,18:01～19:00,0.0430,0.0385,0.0409,
江東 (Koto),2013-08-31,17:01～18:00,0.0436,0.0388,0.0409,
江東 (Koto),2013-08-31,16:01～17:00,0.0431,0.0386,0.0409,
江東 (Koto),2013-08-31,15:01～16:00,0.0437,0.0389,0.0409,
江東 (Koto),2013-08-31,14:01～15:00,0.0436,0.0380,0.0409,
江東 (Koto),2013-08-31,13:01～14:00,0.0438,0.0389,0.0407,
江東 (Koto),2013-08-31,12:01～13:00,0.0426,0.0382,0.0408,
江東 (Koto),2013-08-31,11:01～12:00,0.0432,0.0383,0.0410,
江東 (Koto),2013-08-31,10:01～11:00,0.0449,0.0383,0.0411,
江東 (Koto),2013-08-31,09:01～10:00,0.0424,0.0379,0.0409,
江東 (Koto),2013-08-31,08:01～09:00,0.0442,0.0392,0.0413,
江東 (Koto),2013-08-31,07:01～08:00,0.0455,0.0395,0.0414,
江東 (Koto),2013-08-31,06:01～07:00,0.0432,0.0391,0.0410,
江東 (Koto),2013-08-31,05:01～06:00,0.0435,0.0391,0.0409,
江東 (Koto),2013-08-31,04:01～05:00,0.0434,0.0393,0.0409,
江東 (Koto),2013-08-31,03:01～04:00,0.0437,0.0380,0.0407,
江東 (Koto),2013-08-31,02:01～03:00,0.0429,0.0384,0.0409,
江東 (Koto),2013-08-31,01:01～02:00,0.0438,0.0385,0.0408,
江東 (Koto),2013-08-31,00:01～01:00,0.0439,0.0388,0.0409,
江東 (Koto),2013-08-30,23:01～24:00,0.0441,0.0390,0.0410,
江東 (Koto),2013-08-30,22:01～23:00,0.0438,0.0393,0.0411,
江東 (Koto),2013-08-30,21:01～22:00,0.0431,0.0381,0.0409,
江東 (Koto),2013-08-30,20:01～21:00,0.0438,0.0387,0.0409,
江東 (Koto),2013-08-30,19:01～20:00,0.0429,0.0385,0.0407,
江東 (Koto),2013-08-30,18:01～19:00,0.0440,0.0393,0.0413,
江東 (Koto),2013-08-30,17:01～18:00,0.0434,0.0391,0.0408,
江東 (Koto),2013-08-30,16:01～17:00,0.0438,0.0387,0.0408,
江東 (Koto),2013-08-30,15:01～16:00,0.0428,0.0375,0.0406,
江東 (Koto),2013-08-30,14:01～15:00,0.0433,0.0376,0.0403,
江東 (Koto),2013-08-30,13:01～14:00,0.0422,0.0382,0.0405,
江東 (Koto),2013-08-30,12:01～13:00,0.0439,0.0386,0.0408,
江東 (Koto),2013-08-30,11:01～12:00,0.0429,0.0382,0.0409,
江東 (Koto),2013-08-30,10:01～11:00,0.0434,0.0387,0.0411,
江東 (Koto),2013-08-30,09:01～10:00,0.0432,0.0384,0.0407,
江東 (Koto),2013-08-30,08:01～09:00,0.0439,0.0389,0.0412,
江東 (Koto),2013-08-30,07:01～08:00,0.0434,0.0385,0.0409,
江東 (Koto),2013-08-30,06:01～07:00,0.0432,0.0385,0.0408,
江東 (Koto),2013-08-30,05:01～06:00,0.0434,0.0386,0.0410,
江東 (Koto),2013-08-30,04:01～05:00,0.0432,0.0384,0.0407,
江東 (Koto),2013-08-30,03:01～04:00,0.0440,0.0381,0.0411,
江東 (Koto),2013-08-30,02:01～03:00,0.0434,0.0374,0.0407,
江東 (Koto),2013-08-30,01:01～02:00,0.0428,0.0389,0.0409,
江東 (Koto),2013-08-30,00:01～01:00,0.0438,0.0387,0.0407,
江東 (Koto),2013-08-29,23:01～24:00,0.0447,0.0381,0.0408,
江東 (Koto),2013-08-29,22:01～23:00,0.0431,0.0367,0.0407,
江東 (Koto),2013-08-29,21:01～22:00,0.0441,0.0389,0.0411,
江東 (Koto),2013-08-29,20:01～21:00,0.0433,0.0392,0.0410,
江東 (Koto),2013-08-29,19:01～20:00,0.0438,0.0382,0.0408,
江東 (Koto),2013-08-29,18:01～19:00,0.0429,0.0386,0.0408,
江東 (Koto),2013-08-29,17:01～18:00,0.0425,0.0384,0.0408,
江東 (Koto),2013-08-29,16:01～17:00,0.0433,0.0385,0.0408,
江東 (Koto),2013-08-29,15:01～16:00,0.0437,0.0381,0.0411,
江東 (Koto),2013-08-29,14:01～15:00,0.0441,0.0386,0.0412,
江東 (Koto),2013-08-29,13:01～14:00,0.0434,0.0383,0.0410,
江東 (Koto),2013-08-29,12:01～13:00,0.0431,0.0384,0.0410,
江東 (Koto),2013-08-29,11:01～12:00,0.0430,0.0387,0.0408,
江東 (Koto),2013-08-29,10:01～11:00,0.0445,0.0383,0.0407,
江東 (Koto),2013-08-29,09:01～10:00,0.0439,0.0379,0.0410,
江東 (Koto),2013-08-29,08:01～09:00,0.0431,0.0387,0.0410,
江東 (Koto),2013-08-29,07:01～08:00,0.0451,0.0384,0.0410,
江東 (Koto),2013-08-29,06:01～07:00,0.0429,0.0382,0.0408,
江東 (Koto),2013-08-29,05:01～06:00,0.0433,0.0380,0.0408,
江東 (Koto),2013-08-29,04:01～05:00,0.0433,0.0384,0.0409,
江東 (Koto),2013-08-29,03:01～04:00,0.0435,0.0387,0.0410,
江東 (Koto),2013-08-29,02:01～03:00,0.0438,0.0386,0.0410,
江東 (Koto),2013-08-29,01:01～02:00,0.0430,0.0387,0.0409,
江東 (Koto),2013-08-29,00:01～01:00,0.0438,0.0384,0.0408,
江東 (Koto),2013-08-28,23:01～24:00,0.0435,0.0386,0.0408,
江東 (Koto),2013-08-28,22:01～23:00,0.0429,0.0373,0.0405,
江東 (Koto),2013-08-28,21:01～22:00,0.0443,0.0387,0.0406,
江東 (Koto),2013-08-28,20:01～21:00,0.0427,0.0379,0.0405,
江東 (Koto),2013-08-28,19:01～20:00,0.0434,0.0390,0.0411,
江東 (Koto),2013-08-28,18:01～19:00,0.0438,0.0379,0.0407,
江東 (Koto),2013-08-28,17:01～18:00,0.0425,0.0381,0.0408,
江東 (Koto),2013-08-28,16:01～17:00,0.0441,0.0379,0.0406,
江東 (Koto),2013-08-28,15:01～16:00,0.0438,0.0381,0.0406,
江東 (Koto),2013-08-28,14:01～15:00,0.0429,0.0383,0.0407,
江東 (Koto),2013-08-28,13:01～14:00,0.0429,0.0382,0.0408,
江東 (Koto),2013-08-28,12:01～13:00,0.0428,0.0377,0.0407,
江東 (Koto),2013-08-28,11:01～12:00,0.0430,0.0377,0.0403,
江東 (Koto),2013-08-28,10:01～11:00,0.0434,0.0383,0.0407,
江東 (Koto),2013-08-28,09:01～10:00,0.0431,0.0386,0.0408,
江東 (Koto),2013-08-28,08:01～09:00,0.0433,0.0391,0.0409,
江東 (Koto),2013-08-28,07:01～08:00,0.0436,0.0376,0.0408,
江東 (Koto),2013-08-28,06:01～07:00,0.0429,0.0383,0.0406,
江東 (Koto),2013-08-28,05:01～06:00,0.0430,0.0385,0.0406,
江東 (Koto),2013-08-28,04:01～05:00,0.0430,0.0387,0.0408,
江東 (Koto),2013-08-28,03:01～04:00,0.0433,0.0375,0.0405,
江東 (Koto),2013-08-28,02:01～03:00,0.0439,0.0384,0.0406,
江東 (Koto),2013-08-28,01:01～02:00,0.0428,0.0380,0.0405,
江東 (Koto),2013-08-28,00:01～01:00,0.0430,0.0380,0.0407,
江東 (Koto),2013-08-27,23:01～24:00,0.0424,0.0384,0.0407,
江東 (Koto),2013-08-27,22:01～23:00,0.0429,0.0379,0.0408,
江東 (Koto),2013-08-27,21:01～22:00,0.0433,0.0389,0.0407,
江東 (Koto),2013-08-27,20:01～21:00,0.0432,0.0376,0.0407,
江東 (Koto),2013-08-27,19:01～20:00,0.0432,0.0381,0.0405,
江東 (Koto),2013-08-27,18:01～19:00,0.0430,0.0386,0.0407,
江東 (Koto),2013-08-27,17:01～18:00,0.0437,0.0376,0.0406,
江東 (Koto),2013-08-27,16:01～17:00,0.0429,0.0383,0.0408,
江東 (Koto),2013-08-27,15:01～16:00,0.0426,0.0379,0.0406,
江東 (Koto),2013-08-27,14:01～15:00,0.0427,0.0378,0.0403,
江東 (Koto),2013-08-27,13:01～14:00,0.0434,0.0377,0.0405,
江東 (Koto),2013-08-27,12:01～13:00,0.0425,0.0384,0.0404,
江東 (Koto),2013-08-27,11:01～12:00,0.0422,0.0387,0.0403,
江東 (Koto),2013-08-27,10:01～11:00,0.0428,0.0381,0.0404,
江東 (Koto),2013-08-27,09:01～10:00,0.0434,0.0384,0.0406,
江東 (Koto),2013-08-27,08:01～09:00,0.0436,0.0384,0.0404,
江東 (Koto),2013-08-27,07:01～08:00,0.0432,0.0383,0.0408,
江東 (Koto),2013-08-27,06:01～07:00,0.0436,0.0389,0.0411,
江東 (Koto),2013-08-27,05:01～06:00,0.0456,0.0402,0.0425,
江東 (Koto),2013-08-27,04:01～05:00,0.0495,0.0425,0.0461,
江東 (Koto),2013-08-27,03:01～04:00,0.0546,0.0443,0.0499,
江東 (Koto),2013-08-27,02:01～03:00,0.0580,0.0501,0.0548,
江東 (Koto),2013-08-27,01:01～02:00,0.0624,0.0541,0.0579,
江東 (Koto),2013-08-27,00:01～01:00,0.0709,0.0597,0.0652,
江東 (Koto),2013-08-26,23:01～24:00,0.0630,0.0390,0.0459,
江東 (Koto),2013-08-26,22:01～23:00,0.0449,0.0384,0.0410,
江東 (Koto),2013-08-26,21:01～22:00,0.0432,0.0386,0.0408,
江東 (Koto),2013-08-26,20:01～21:00,0.0442,0.0390,0.0411,
江東 (Koto),2013-08-26,19:01～20:00,0.0442,0.0388,0.0410,
江東 (Koto),2013-08-26,18:01～19:00,0.0437,0.0396,0.0414,
江東 (Koto),2013-08-26,17:01～18:00,0.0427,0.0389,0.0410,
江東 (Koto),2013-08-26,16:01～17:00,0.0432,0.0386,0.0411,
江東 (Koto),2013-08-26,15:01～16:00,0.0445,0.0386,0.0412,
江東 (Koto),2013-08-26,14:01～15:00,0.0440,0.0382,0.0410,
江東 (Koto),2013-08-26,13:01～14:00,0.0439,0.0375,0.0409,
江東 (Koto),2013-08-26,12:01～13:00,0.0440,0.0388,0.0410,
江東 (Koto),2013-08-26,11:01～12:00,0.0449,0.0386,0.0410,
江東 (Koto),2013-08-26,10:01～11:00,0.0448,0.0386,0.0410,
江東 (Koto),2013-08-26,09:01～10:00,0.0454,0.0383,0.0413,
江東 (Koto),2013-08-26,08:01～09:00,0.0431,0.0384,0.0410,
江東 (Koto),2013-08-26,07:01～08:00,0.0443,0.0384,0.0411,
江東 (Koto),2013-08-26,06:01～07:00,0.0444,0.0385,0.0417,
江東 (Koto),2013-08-26,05:01～06:00,0.0430,0.0380,0.0411,
江東 (Koto),2013-08-26,04:01～05:00,0.0433,0.0393,0.0414,
江東 (Koto),2013-08-26,03:01～04:00,0.0440,0.0384,0.0414,
江東 (Koto),2013-08-26,02:01～03:00,0.0438,0.0385,0.0410,
江東 (Koto),2013-08-26,01:01～02:00,0.0442,0.0380,0.0409,
江東 (Koto),2013-08-26,00:01～01:00,0.0435,0.0392,0.0413,
